Weather History for Lamoni, IA

Change the Weather History Date:

Friday, July 18, 2014

  Actual Average Record
Temperature  
Mean Temperature 69 °F 75 °F  
Max Temperature 78 °F 85 °F 103 °F (2012)
Min Temperature 59 °F 65 °F 57 °F (1984)
Degree Days  
Heating Degree Days 0 0  
Month to date heating degree days 7 0  
Since 1 June heating degree days 12 19  
Since 1 July heating degree days 7 0  
Cooling Degree Days 4 10  
Month to date cooling degree days 102 178  
Year to date cooling degree days 433 425  
Since 1 June cooling degree days 321 371  
Growing Degree Days 18 (Base 50)    
Moisture  
Dew Point 58 °F    
Average Humidity 67    
Maximum Humidity 84    
Minimum Humidity 50    
Precipitation  
Precipitation 0.00 in 0.18 in 1.33 in (1973)
Month to date precipitation 3.07 2.93  
Sea Level Pressure  
Sea Level Pressure 30.06 in    
Wind  
Wind Speed 6 mph (SSE)    
Max Wind Speed 15 mph    
Max Gust Speed 19 mph    
Visibility 10 miles    
Events      
T = Trace of Precipitation, MM = Missing Value Source: NWS Daily Summary

Daily Weather History Graph

Daily Weather History Graph

Search for Another Location

Airport:

Trip Planner

Search our weather history database for the weather conditions in past years. The results will help you decide how hot, cold, wet, or windy it might be!

Date:

Astronomy

Jul. 18, 2014 Rise Set
Actual Time 5:59 AM CDT 8:43 PM CDT
Civil Twilight 5:27 AM CDT 9:15 PM CDT
Nautical Twilight 4:47 AM CDT 9:55 PM CDT
Astronomical Twilight 4:01 AM CDT 10:40 PM CDT
Moon 12:01 AM CDT (7/18) 1:19 PM CDT (7/18)
Length of Visible Light 15h 47m
Length of Day
14h 43m
Waning Gibbous, 54% of the Moon is Illuminated
Jul 18
Waning Gibbous
Jul 18
Last Quarter
Jul 26
New
Aug 3
First Quarter
Aug 10
Full

Hourly Weather History & Observations

Time (CDT) Temp. Dew Point Humidity Pressure Visibility Wind Dir Wind Speed Gust Speed Precip Events Conditions
1:53 AM 63.0 °F 55.9 °F 78% 30.08 in 10.0 mi SSE 4.6 mph - N/A   Overcast
2:53 AM 62.1 °F 57.0 °F 84% 30.07 in 10.0 mi SE 4.6 mph - N/A   Overcast
3:53 AM 62.1 °F 55.9 °F 80% 30.08 in 10.0 mi SSE 4.6 mph - N/A   Overcast
4:53 AM 62.1 °F 55.9 °F 80% 30.09 in 10.0 mi South 4.6 mph - N/A   Overcast
5:53 AM 61.0 °F 55.0 °F 81% 30.09 in 10.0 mi SE 4.6 mph - N/A   Scattered Clouds
6:53 AM 61.0 °F 55.0 °F 81% 30.10 in 10.0 mi South 6.9 mph - N/A   Scattered Clouds
7:53 AM 64.0 °F 55.9 °F 75% 30.11 in 10.0 mi SSE 5.8 mph - N/A   Clear
8:53 AM 68.0 °F 57.9 °F 70% 30.10 in 10.0 mi South 5.8 mph - N/A   Clear
9:53 AM 70.0 °F 57.9 °F 65% 30.10 in 10.0 mi SSE 6.9 mph - N/A   Clear
10:53 AM 73.0 °F 59.0 °F 61% 30.09 in 10.0 mi South 8.1 mph - N/A   Clear
11:53 AM 73.9 °F 55.0 °F 52% 30.08 in 10.0 mi SSE 11.5 mph - N/A   Clear
12:53 PM 75.9 °F 55.0 °F 48% 30.08 in 10.0 mi South 9.2 mph - N/A   Clear
2:53 PM 73.9 °F 57.0 °F 55% 30.05 in 10.0 mi South 8.1 mph - N/A   Overcast
3:53 PM 75.0 °F 57.9 °F 55% 30.04 in 10.0 mi South 5.8 mph - N/A   Mostly Cloudy
4:53 PM 75.0 °F 59.0 °F 57% 30.04 in 10.0 mi South 8.1 mph - N/A   Overcast
5:53 PM 73.9 °F 57.9 °F 57% 30.03 in 10.0 mi South 5.8 mph - N/A   Overcast
6:53 PM 73.9 °F 60.1 °F 62% 30.03 in 10.0 mi South 5.8 mph - N/A   Mostly Cloudy
7:53 PM 72.0 °F 60.1 °F 66% 30.02 in 10.0 mi SSE 4.6 mph - N/A   Overcast
8:53 PM 71.1 °F 60.1 °F 68% 30.02 in 10.0 mi SSE 5.8 mph - N/A   Overcast
9:53 PM 68.0 °F 60.1 °F 76% 30.02 in 10.0 mi South 4.6 mph - N/A   Clear
10:53 PM 66.9 °F 60.1 °F 79% 30.03 in 10.0 mi South 4.6 mph - N/A   Clear
11:53 PM 66.9 °F 60.1 °F 79% 30.04 in 10.0 mi South 3.5 mph - N/A   Clear